This is the latest recevied weather packets stored in our database for station/object N3TTT-13. If no packets are shown the sender has not sent any weather packets the latest 10 day(s).
| Time | Temp. | Humidity | Pressure | Rain* | Wind** | Luminosity | Snow |
|---|---|---|---|---|---|---|---|
| 1777638524 | 11.67° C | 73% | 1015.7 hPa | 0 mm | - | 271 W/m² | - |
| 1777638221 | 11.11° C | 75% | 1015.6 hPa | 0 mm | - | 257 W/m² | - |
| 1777637917 | 10.56° C | 75% | 1015.7 hPa | 0 mm | - | 227 W/m² | - |
| 1777637613 | 10.56° C | 75% | 1015.7 hPa | 0 mm | - | 216 W/m² | - |
| 1777637311 | 10.56° C | 76% | 1015.5 hPa | 0 mm | - | 189 W/m² | - |
| 1777637007 | 10° C | 78% | 1015.7 hPa | 0 mm | - | 175 W/m² | - |
| 1777636703 | 10° C | 77% | 1015.5 hPa | 0 mm | - | 170 W/m² | - |
| 1777636400 | 10.56° C | 77% | 1015.6 hPa | 0 mm | - | 147 W/m² | - |
| 1777636095 | 10° C | 79% | 1015.4 hPa | 0 mm | - | 133 W/m² | - |
| 1777635790 | 10° C | 79% | 1015.6 hPa | 0 mm | - | 133 W/m² | - |
| 1777635488 | 10° C | 79% | 1015.3 hPa | 0 mm | - | 113 W/m² | - |
| 1777635184 | 9.44° C | 80% | 1015.4 hPa | 0 mm | - | 102 W/m² | - |
| 1777634880 | 8.89° C | 81% | 1015.1 hPa | 0 mm | - | 85 W/m² | - |
| 1777634577 | 8.89° C | 81% | 1015.4 hPa | 0 mm | - | 80 W/m² | - |
| 1777634275 | 8.33° C | 82% | 1015.1 hPa | 0 mm | - | 58 W/m² | - |
| 1777633971 | 7.78° C | 83% | 1015.2 hPa | 0 mm | - | 62 W/m² | - |
| 1777633668 | 7.78° C | 84% | 1015.4 hPa | 0 mm | - | 45 W/m² | - |
| 1777633367 | 7.22° C | 86% | 1015.1 hPa | 0 mm | - | 41 W/m² | - |
| 1777633064 | 6.67° C | 89% | 1015.2 hPa | 0 mm | - | 33 W/m² | - |
| 1777632760 | 6.67° C | 91% | 1015.2 hPa | 0 mm | - | 30 W/m² | - |
| 1777632455 | 5.56° C | 91% | 1015.3 hPa | 0 mm | - | 26 W/m² | - |
| 1777632153 | 5.56° C | 92% | 1015.3 hPa | 0 mm | - | 22 W/m² | - |
| 1777631850 | 5° C | 92% | 1015.2 hPa | 0 mm | - | 18 W/m² | - |
| 1777631549 | 5° C | 92% | 1015.3 hPa | 0 mm | - | 15 W/m² | - |
| 1777631245 | 4.44° C | 92% | 1015.1 hPa | 0 mm | - | 12 W/m² | - |
* Rain latest hour (hover to see other rain measurements)
** Current wind speed in m/s (hover to see current wind gust speed)